Regional Weather Roundup
Issued by NWS State College, PA

Home | Current Version | Previous Version | Graphics & Text | Print | Product List | Glossary Off
Versions: 1 2 3 4 5 6 7 8 9 10 11 12 13 14 15 16 17 18 19 20 21 22 23 24 25 26 27 28 29 30 31 32 33 34 35 36 37 38 39 40 41 42 43 44 45 46 47 48 49 50

000
ASUS41 KCTP 012310
RWRCTP

REGIONAL WEATHER ROUNDUP
NATIONAL WEATHER SERVICE STATE COLLEGE PA
600 PM EST SUN MAR 01 2015

Note: "fair" indicates few or no clouds below 12,000 feet with no
significant weather and/or obstructions to visibility.

* = STATION THAT DOES NOT REPORT PRECIPITATION /E.G. RAIN...SNOW...ETC/
    THUNDER OR FOG.

PAZ002>004-007>009-013>016-020>023-029>032-020000-
WESTERN PENNSYLVANIA

CITY           SKY/WX    TMP DP  RH WIND       PRES   REMARKS
ERIE           LGT SNOW  24  20  84 W5        30.22F VSB 1
MEADVILLE      LGT SNOW  28  25  88 W6        30.16S
FRANKLIN*      CLOUDY    30  28  93 W6        30.17F VSB 1
NEW CASTLE     SNOW      32  32 100 CALM      30.20F VSB 1/2
BEAVER COUNTY  NOT AVBL
BUTLER*        CLOUDY    34  30  86 SW5       30.20S VSB 3/4
PITTSBURGH INT SNOW      33  32  96 S5        30.18F VSB 1/4
PITTSBURGH     LGT RAIN  33  30  88 S6        30.19S VSB 1
INDIANA*       FOG       34  34 100 W8        30.22S VSB 1
LATROBE        LGT RAIN  36  36 100 SW7       30.22S
WASHINGTON CO* CLOUDY    36  34  93 SW5       30.21S
$$

PAZ004>006-010>012-017>019-024>028-033>037-041-042-045-046-049>053-020000-
CENTRAL PENNSYLVANIA

CITY           SKY/WX    TMP DP  RH WIND       PRES   REMARKS
BRADFORD       SNOW      30  27  88 CALM      30.10F VSB 1/4
DUBOIS         SNOW      32  31  96 SW10      30.14S VSB 1/4
CLEARFIELD     SNOW      29  26  89 CALM      30.17S VSB 1/2
JOHNSTOWN      LGT SNOW  34  33  96 SW12      30.14S FOG
ALTOONA        LGT SNOW  31  29  92 SW5       30.19F FOG
STATE COLLEGE  LGT SNOW  27  25  93 SW5       30.21F VSB 1
WILLIAMSPORT   LGT SNOW  26  20  77 E10       30.26F
SELINSGROVE    LGT SNOW  27  22  81 S5        30.29F
FT INDIANTOWN  FRZ RAIN  23  21  93 E2        30.29F
CAPITAL CITY   FRZ RAIN  27  25  92 E6        30.29F FOG
HARRISBURG     FRZ RAIN  28  24  85 E5        30.29F FOG
YORK           FRZ RAIN  31  28  89 VRB6      30.28F FOG
$$

PAZ038>040-043-044-047-048-054-055-060>062-067>071-020000-
EASTERN PENNSYLVANIA

CITY           SKY/WX    TMP DP  RH WIND       PRES   REMARKS
SCRANTON       LGT SNOW  25  21  85 SW5       30.24F
MOUNT POCONO   LGT SNOW  19  16  88 SW3       30.18F FOG
ALLENTOWN      CLOUDY    25  19  80 CALM      30.31F
QUAKERTOWN*    CLOUDY    25  23  93 CALM      30.31F
READING        FRZ RAIN  25  22  88 CALM      30.30F
LANCASTER      FRZ RAIN  29  28  96 S5        30.29F FOG
COATESVILLE    LGT RAIN  30  30 100 S3        30.30F
POTTSTOWN      FRZ RAIN  28  28 100 CALM      30.32F FOG
BLUE BELL      CLOUDY    32  30  93 CALM      30.31F
DOYLESTOWN     FRZ RAIN  26  26 100 CALM      30.31F
WILLOW GROVE   NOT AVBL
NORTH PHILA    FRZ RAIN  31  25  78 VRB3      30.35F
PHILADELPHIA   FRZ RAIN  30  27  88 S6        30.35F FOG
$$


USA.gov is the U.S. government's official web portal to all federal, state and local government web resources and services.